TimeMST,TemperatureF,Dew PointF,Humidity,Sea Level PressureIn,VisibilityMPH,Wind Direction,Wind SpeedMPH,Gust SpeedMPH,PrecipitationIn,Events,Conditions,WindDirDegrees,DateUTC
12:54 AM,30.0,27.0,88,30.28,10.0,Calm,Calm,-,N/A,,Clear,0,2013-11-27 07:54:00
1:54 AM,26.1,24.1,92,30.29,8.0,Calm,Calm,-,N/A,,Clear,0,2013-11-27 08:54:00
2:54 AM,25.0,23.0,92,30.29,10.0,Calm,Calm,-,N/A,,Clear,0,2013-11-27 09:54:00
3:54 AM,26.1,23.0,88,30.27,10.0,Calm,Calm,-,N/A,,Clear,0,2013-11-27 10:54:00
4:54 AM,23.0,21.0,92,30.28,10.0,Calm,Calm,-,N/A,,Clear,0,2013-11-27 11:54:00
5:54 AM,25.0,21.9,88,30.31,10.0,SSE,3.5,-,N/A,,Clear,160,2013-11-27 12:54:00
6:54 AM,26.1,23.0,88,30.29,10.0,Calm,Calm,-,N/A,,Clear,0,2013-11-27 13:54:00
7:54 AM,25.0,23.0,92,30.31,10.0,Calm,Calm,-,N/A,,Clear,0,2013-11-27 14:54:00
8:54 AM,28.9,27.0,92,30.30,9.0,Calm,Calm,-,N/A,,Clear,0,2013-11-27 15:54:00
9:54 AM,34.0,28.0,79,30.29,10.0,SSE,3.5,-,N/A,,Clear,150,2013-11-27 16:54:00
10:54 AM,39.0,28.9,67,30.25,10.0,North,3.5,-,N/A,,Clear,360,2013-11-27 17:54:00
11:54 AM,41.0,28.0,60,30.20,10.0,NW,3.5,-,N/A,,Clear,320,2013-11-27 18:54:00
12:54 PM,46.0,28.0,50,30.14,10.0,Variable,3.5,-,N/A,,Clear,0,2013-11-27 19:54:00
1:54 PM,46.0,28.0,50,30.13,10.0,West,5.8,-,N/A,,Clear,270,2013-11-27 20:54:00
2:54 PM,46.9,28.9,50,30.12,10.0,WNW,6.9,-,N/A,,Clear,290,2013-11-27 21:54:00
3:54 PM,46.0,30.0,54,30.12,10.0,WNW,6.9,-,N/A,,Clear,300,2013-11-27 22:54:00
4:54 PM,43.0,32.0,65,30.13,10.0,NNW,4.6,-,N/A,,Clear,330,2013-11-27 23:54:00
5:54 PM,39.9,32.0,73,30.13,10.0,Calm,Calm,-,N/A,,Clear,0,2013-11-28 00:54:00
6:54 PM,39.0,32.0,76,30.14,10.0,Calm,Calm,-,N/A,,Clear,0,2013-11-28 01:54:00
7:54 PM,36.0,30.9,82,30.16,10.0,Calm,Calm,-,N/A,,Clear,0,2013-11-28 02:54:00
8:54 PM,33.1,30.0,89,30.16,10.0,SSE,3.5,-,N/A,,Clear,160,2013-11-28 03:54:00
9:54 PM,30.9,27.0,85,30.16,10.0,Calm,Calm,-,N/A,,Clear,0,2013-11-28 04:54:00
10:54 PM,30.9,28.0,89,30.14,10.0,SSE,5.8,-,N/A,,Clear,150,2013-11-28 05:54:00
11:54 PM,32.0,28.0,85,30.12,10.0,SSE,4.6,-,N/A,,Clear,160,2013-11-28 06:54:00